Location: Meylan - GAD - Ancien Couvent des Capucins
(45.2229°N, 5.7790°E)
Time: 23:34:37
(UTC+02:00)

ISS - Visible Passes

Search period start: 18 October 2019 00:00
Search period end: 27 October 2019 23:00
Orbit: 411 x 421 km, 51.6° (Epoch: 19 October)

Date Brightness Start Highest point End Pass type
(mag) Time Alt. Az. Time Alt. Az. Time Alt. Az.
24 Oct -0.8 06:48:33 10° S 06:50:40 16° SE 06:52:47 10° E visible
25 Oct -3.2 07:35:07 10° SW 07:38:26 62° SSE 07:41:47 10° ENE visible
26 Oct -2.4 06:46:49 10° SSW 06:49:54 38° SE 06:53:04 10° ENE visible
27 Oct -1.8 05:00:52 22° SSE 05:01:25 23° SE 05:04:11 10° E visible
27 Oct -3.6 06:34:37 10° WSW 06:37:56 60° NNW 06:41:17 10° ENE visible
